Change the Weather History Date:

Saturday, May 3, 2014

  Actual Average Record
Temperature  
Mean Temperature 84 °F -  
Max Temperature 102 °F 91 °F 102 °F (2004)
Min Temperature 66 °F 60 °F 48 °F (1955)
Cooling Degree Days 19    
Growing Degree Days 34 (Base 50)    
Moisture  
Dew Point 28 °F    
Average Humidity 13    
Maximum Humidity 24    
Minimum Humidity 6    
Precipitation  
Precipitation 0.00 in - - ()
Sea Level Pressure  
Sea Level Pressure 29.81 in    
Wind  
Wind Speed 8 mph (SSE)    
Max Wind Speed 16 mph    
Max Gust Speed -    
Visibility 9 miles    
Events      
Averages and records for this station are not official NWS values.
T = Trace of Precipitation, MM = Missing Value Source: NWS Daily Summary

Daily Weather History Graph

Daily Weather History Graph

Search for Another Location

Airport or City:

Trip Planner

Search our weather history database for the weather conditions in past years. The results will help you decide how hot, cold, wet, or windy it might be!

Date:

Astronomy

May. 03, 2014 Rise Set
Actual Time 5:53 AM PDT 7:25 PM PDT
Civil Twilight 5:26 AM PDT 7:52 PM PDT
Nautical Twilight 4:55 AM PDT 8:23 PM PDT
Astronomical Twilight 4:21 AM PDT 8:57 PM PDT
Moon 9:29 AM PDT (5/3) 11:33 PM PDT (5/3)
Length of Visible Light 14h 25m
Length of Day
13h 32m
Waxing Crescent, 20% of the Moon is Illuminated
May 3
Waxing Crescent
May 6
First Quarter
May 14
Full
May 21
Last Quarter
May 28
New

Hourly Weather History & Observations

Time (PDT) Temp. Dew Point Humidity Pressure Visibility Wind Dir Wind Speed Gust Speed Precip Events Conditions
12:53 AM 77.0 °F 19.9 °F 12% 29.83 in 10.0 mi WSW 9.2 mph - N/A   Clear
1:53 AM 69.1 °F 28.9 °F 22% 29.82 in 10.0 mi WSW 6.9 mph - N/A   Clear
2:53 AM 71.1 °F 27.0 °F 19% 29.81 in 10.0 mi West 6.9 mph - N/A   Clear
3:53 AM 68.0 °F 27.0 °F 21% 29.82 in 10.0 mi West 5.8 mph - N/A   Clear
4:53 AM 66.0 °F 28.0 °F 24% 29.81 in 10.0 mi WSW 5.8 mph - N/A   Clear
5:53 AM 66.0 °F 26.1 °F 22% 29.82 in 10.0 mi West 5.8 mph - N/A   Clear
6:53 AM 68.0 °F 26.1 °F 21% 29.84 in 10.0 mi South 4.6 mph - N/A   Clear
7:53 AM 77.0 °F 30.0 °F 18% 29.85 in 10.0 mi SE 3.5 mph - N/A   Clear
8:53 AM 82.9 °F 34.0 °F 17% 29.86 in 10.0 mi ESE 5.8 mph - N/A   Clear
9:53 AM 87.1 °F 37.0 °F 17% 29.87 in 10.0 mi ESE 8.1 mph - N/A   Clear
10:53 AM 91.9 °F 37.0 °F 15% 29.87 in 10.0 mi East 6.9 mph - N/A   Clear
11:42 AM 97.0 °F 27.0 °F 8% 29.84 in 1.8 mi ENE 8.1 mph - N/A   Haze
11:50 AM 96.8 °F 24.8 °F 8% 29.84 in 5.0 mi East 8.1 mph - N/A   Haze
11:53 AM 97.0 °F 27.0 °F 8% 29.85 in 10.0 mi ESE 8.1 mph - N/A   Clear
12:06 PM 98.1 °F 28.0 °F 8% 29.83 in 8.0 mi ESE 9.2 mph - N/A   Partly Cloudy
12:53 PM 100.9 °F 27.0 °F 7% 29.82 in 10.0 mi ESE 9.2 mph - N/A   Clear
1:53 PM 102.0 °F 24.1 °F 6% 29.80 in 10.0 mi ESE 10.4 mph - N/A   Clear
2:53 PM 102.0 °F 23.0 °F 6% 29.77 in 10.0 mi East 13.8 mph - N/A   Clear
3:53 PM 102.0 °F 21.9 °F 6% 29.75 in 10.0 mi ESE 12.7 mph - N/A   Clear
4:53 PM 102.0 °F 24.1 °F 6% 29.74 in 10.0 mi ESE 12.7 mph - N/A   Clear
5:53 PM 100.0 °F 27.0 °F 8% 29.73 in 10.0 mi SE 12.7 mph - N/A   Clear
6:53 PM 96.1 °F 30.9 °F 10% 29.72 in 10.0 mi SE 16.1 mph - N/A   Clear
7:53 PM 93.0 °F 24.1 °F 8% 29.74 in 10.0 mi SSE 15.0 mph - N/A   Clear
8:53 PM 87.1 °F 28.0 °F 12% 29.76 in 10.0 mi SSW 6.9 mph - N/A   Clear
9:53 PM 84.0 °F 27.0 °F 13% 29.79 in 10.0 mi WSW 12.7 mph - N/A   Clear
10:53 PM 79.0 °F 30.0 °F 17% 29.80 in 10.0 mi West 9.2 mph - N/A   Clear
11:53 PM 75.0 °F 30.9 °F 20% 29.81 in 10.0 mi WNW 4.6 mph - N/A   Clear